Regional Weather Roundup
Issued by NWS Sterling, VA

Home | Current Version | Previous Version | Text Only | Print | Product List | Glossary Off
Versions: 1 2 3 4 5 6 7 8 9 10 11 12 13 14 15 16 17 18 19 20 21 22 23 24 25 26 27

000
ASUS41 KLWX 181611
RWRLWX

REGIONAL WEATHER ROUNDUP
NATIONAL WEATHER SERVICE BALTIMORE MD/WASHINGTON DC
1200 PM EDT WED OCT 18 2017

Note: "FAIR" indicates few or no clouds below 12,000 feet
with no significant weather and/or obstructions to visibility.
 TC=TEMPERATURE CELSIUS

 * =Non NWS site. Station does not report precipitation (e.g. rain,
    snow, etc.), thunder, or fog.

DCZ001-MDZ009-015-VAZ040>042-051-053>054-181700-
WASHINGTON METRO

CITY           SKY/WX    TMP DP  RH WIND       PRES   REMARKS
WASHINGTON NAT SUNNY     63  46  54 S7        30.41R
DULLES         SUNNY     65  42  43 CALM      30.40S
ANDREWS AFB    SUNNY     65  43  43 CALM      30.39R
FT BELVOIR     SUNNY     65  44  47 S5        30.40S
QUANTICO       SUNNY     60  48  64 S3        30.42S
COLLEGE PARK*  SUNNY     64  42  44 CALM      30.39R
LEESBURG*      SUNNY     66  46  48 W3        30.41R
MANASSAS*      SUNNY     64  41  42 CALM      30.41S
GAITHERSBURG*  SUNNY     65  43  44 VRB5      30.40S

$$

MDZ006>007-011-014-181700-
BALTIMORE METRO

CITY           SKY/WX    TMP DP  RH WIND       PRES   REMARKS
BWI AIRPORT    SUNNY     68  43  40 SW5       30.38S
MD SCIENCE CTR   N/A     69  43  38 MISG      30.38S
MARTIN STATE   SUNNY     64  48  55 CALM      30.39F
ANNAPOLIS      SUNNY     64  48  56 CALM      30.39S
FORT MEADE*    SUNNY     63  45  51 S3        30.41S

$$

MDZ012-015-019>023-181700-
MARYLAND EASTERN SHORE

CITY           SKY/WX    TMP DP  RH WIND       PRES   REMARKS
OCEAN CITY     SUNNY     63  44  50 VRB5      30.40S
SALISBURY      SUNNY     64  46  52 SW5       30.39S
CAMBRIDGE*     SUNNY     64  45  48 VRB5      30.40S
EASTON*        SUNNY     66  39  37 W6        30.43R

$$

MDZ017>025-181700-
SOUTHERN MARYLAND

CITY           SKY/WX    TMP DP  RH WIND       PRES   REMARKS
PATUXENT RIVER SUNNY     64  44  48 SW5       30.40S
ST INIGOES     SUNNY     62  42  47 SW9       30.40S
LEONARDTOWN*   NOT AVBL

$$

MDZ003>005-181700-
NORTH CENTRAL MARYLAND

CITY           SKY/WX    TMP DP  RH WIND       PRES   REMARKS
FREDERICK*     SUNNY     66  41  39 CALM      30.41F
HAGERSTOWN APT SUNNY     60  43  53 S5        30.39S
WESTMINSTER*   SUNNY     63  45  51 SW3       30.38S

$$

MDZ501>502-181700-
WESTERN MARYLAND

CITY           SKY/WX    TMP DP  RH WIND       PRES   REMARKS
OAKLAND*       SUNNY     57  34  41 SE12      30.35F
CUMBERLAND*    SUNNY     57  43  58 S3        30.44S

$$

VAZ025>031-181700-
SHENANDOAH VALLEY

CITY           SKY/WX    TMP DP  RH WIND       PRES   REMARKS
WINCHESTER*    SUNNY     61  39  44 SW3       30.40S
FRONT ROYAL*   SUNNY     61  41  48 W3        30.39S
LURAY*         SUNNY     61  43  51 CALM      30.40F
NEW MARKET*    SUNNY     60  40  46 CALM      30.40S
STAUNTON*      SUNNY     59  40  50 CALM      30.43S
WAYNESBORO*    SUNNY     62  41  47 S5        30.41S

$$

WVZ021-048>050-054>055-181700-
EASTERN WEST VIRGINIA PANHANDLE

CITY           SKY/WX    TMP DP  RH WIND       PRES   REMARKS
MARTINSBURG    SUNNY     61  43  51 S6        30.39S
PETERSBURG*    SUNNY     60  43  53 CALM      30.39F

$$

VAZ036>039-050-181700-
CENTRAL FOOTHILLS

CITY           SKY/WX    TMP DP  RH WIND       PRES   REMARKS
CHARLOTTESVILL SUNNY     65  44  46 S3        30.41S
CULPEPER*      SUNNY     67  38  34 CALM      30.42R
ORANGE*        SUNNY     63  41  45 CALM      30.41S
GORDONSVILLE*  SUNNY     64  42  45 CALM      30.40S
WARRENTON*     SUNNY     66  36  32 CALM      30.40S

$$

VAZ055>057-181700-
NORTH AND CENTRAL PIEDMONT

CITY           SKY/WX    TMP DP  RH WIND       PRES   REMARKS
FREDERICKSBRG* SUNNY     64  42  44 SW5       30.40S
STAFFORD*      SUNNY     63  41  44 CALM      30.45S

$$

NCZ024-NYZ072-PAZ021-071-VAZ022-071-181700-
OTHER REGIONAL OBSERVATIONS

CITY           SKY/WX    TMP DP  RH WIND       PRES   REMARKS
NEW YORK CITY  SUNNY     64  42  44 VRB5      30.35R
PHILADELPHIA   SUNNY     65  43  44 VRB3      30.36S
PITTSBURGH     MOSUNNY   61  42  49 VRB3      30.35F
ROANOKE        SUNNY     59  42  53 CALM      30.43S
RICHMOND       MOSUNNY   64  40  41 NW3       30.42S
RALEIGH        MOSUNNY   61  38  42 NE10      30.41S

$$

ANZ530>537-181700-
MARINE OBSERVATIONS

STATION/POSITION TIME  TEMP    WIND        PRES
                       AIR SEA DIR/SP/G
                 (UTC) (F)     (DEG/KT/KT) (MB)
THOMAS PT LIGHT  1600   60 68  210/  4/  5   N/A
BALT KEY BRIDGE  1542   62      CALM  /  1 1028.8F
COVE POINT       1542   63     270/  2/  4 1030.1R
LEWISETTA        1542   60 64  260/  2/  3 1029.7R
SOLOMONS ISLAND  1542   63 69  270/  2/  5 1029.2S
PINEY POINT      1548          300/  2/  2   N/A

$$





USA.gov is the U.S. government's official web portal to all federal, state and local government web resources and services.